Regional Weather Roundup
Issued by NWS

Home | Current Version | Previous Version | Graphics & Text | Print | Product List | Glossary Off
Versions: 1 2 3 4 5 6 7 8 9 10 11 12 13 14 15 16 17 18 19 20 21 22 23 24 25 26 27 28 29 30 31 32 33 34 35 36 37 38 39 40 41 42 43 44 45 46 47 48 49 50

000
ASUS43 KMKX 271600
RWRWI

WISCONSIN REGIONAL WEATHER ROUNDUP
NATIONAL WEATHER SERVICE MILWAUKEE/SULLIVAN WI
1000 AM CST THU NOV 27 2014

NOTE: "FAIR" INDICATES FEW OR NO CLOUDS BELOW 12,000 FEET WITH NO
SIGNIFICANT WEATHER AND/OR OBSTRUCTIONS TO VISIBILITY.

WIZ001-002-006>008-014>016-023>028-271700-
NORTHWEST WISCONSIN

CITY           SKY/WX    TMP DP  RH WIND       PRES   REMARKS
SUPERIOR ARPT  SUNNY      0  -8  68 W5        30.51S WCI -10
ASHLAND        MOSUNNY    6   0  76 SW5       30.46S WCI  -3
HAYWARD        SUNNY      0  -6  76 NW5       30.43S WCI -10
SIREN          SUNNY     -1  -8  72 NE6       30.48S WCI -12
CUMBERLAND     SUNNY      0  -8  71 NW5       30.44R WCI -10
RICE LAKE      SUNNY      0  -6  73 NW5       30.47R WCI -10
CHETEK         SUNNY      1  -6  73 MISG      30.46R
LADYSMITH      SUNNY      1  -4  78 N10       30.43R WCI -15
EAU CLAIRE     NOT AVBL
MENOMONIE      MOSUNNY    2  -5  70 NW7       30.48R WCI -10
NEW RICHMOND   SUNNY      1  -5  73 NW6       30.49R WCI -10
OSCEOLA        SUNNY      1  -6  73 NW5       30.54R WCI  -9
$$

WIZ003>005-009-010-017-018-271700-
NORTH CENTRAL WISCONSIN

CITY           SKY/WX    TMP DP  RH WIND       PRES   REMARKS
MANITOWISH WTR FLURRIES   2  -2  85 NW6       30.32R WCI  -9
ARBOR VITAE    SUNNY      6   1  80 NW3       30.31S
WOODRUFF       SUNNY      6   1  80 NW3       30.31S
RHINELANDER    SUNNY      7   1  76 N7        30.31R WCI  -5
EAGLE RIVER    SUNNY      7   0  72 N9        30.30R WCI  -7
LAND O LAKES   MOSUNNY    8   2  77 NW8       30.30R WCI  -4
PHILLIPS       SUNNY      1  -4  79 NW3       30.35R
TOMAHAWK       SUNNY      5   0  78 CALM      30.35R
MEDFORD        SUNNY      4  -2  75 N10       30.35R WCI -11
MERRILL        SUNNY      8   1  71 N8        30.34S WCI  -4
$$

WIZ029-030-035-036-043>047-271700-
CENTRAL WISCONSIN

CITY           SKY/WX    TMP DP  RH WIND       PRES   REMARKS
WAUSAU         SUNNY      9   2  73 NW9       30.35R WCI  -4
MOSINEE        NOT AVBL
MARSHFIELD     SUNNY      8   0  69 NW13      30.37R WCI  -8
STEVENS POINT  FLURRIES  10   4  77 N8        30.37R WCI  -1
WAUPACA        MOSUNNY   17   8  68 NW10      30.37R WCI   5
WAUTOMA        NOT AVBL
WISC RAPIDS    SUNNY     11   2  67 NW13      30.40R WCI  -4
CAMP DOUGLAS   CLOUDY    10   5  79 W13       30.41S WCI  -5
$$

WIZ011>013-019>022-031-037>040-048>050-271700-
NORTHEAST WISCONSIN

CITY           SKY/WX    TMP DP  RH WIND       PRES   REMARKS
ANTIGO         MOSUNNY    8   2  77 N10       30.30S WCI  -6
SHAWANO        SUNNY     16   7  66 N10       30.36R WCI   4
OCONTO         SUNNY     14   5  67 N9G17     30.36R WCI   2
STURGEON BAY   MOSUNNY   16   5  62 NW15G22   30.32S WCI   1
GREEN BAY      CLOUDY    17   6  62 NW12      30.35R WCI   4
MANITOWOC      NOT AVBL
APPLETON       PTSUNNY   16  10  79 N12       30.34S WCI   3
CLINTONVILLE   SUNNY     16   7  67 N10       30.36R WCI   3
OSHKOSH        LGT SNOW  18  12  77 MISG      30.35R
$$

WIZ032>034-041-042-053>061-271700-
SOUTHWEST WISCONSIN

CITY           SKY/WX    TMP DP  RH WIND       PRES   REMARKS
LA CROSSE      SUNNY      9  -1  64 NW12      30.48R WCI  -6
SPARTA         MOSUNNY    8   1  70 W3        30.45S
VIROQUA        SUNNY      9   3  75 NW10      30.39R WCI  -5
BOSCOBEL       SUNNY     17   5  59 N9        30.44R WCI   6
PRAIRIE DU CHI SUNNY     14   5  67 NW10      30.45R WCI   1
PLATTEVILLE    CLOUDY    19  15  86 W12       30.39R WCI   6
$$

WIZ056-057-062-063-064-067-068-271700-
SOUTH CENTRAL WISCONSIN

CITY           SKY/WX    TMP DP  RH WIND       PRES   REMARKS
REEDSBURG      MOSUNNY   13   8  79 NW12      30.39R WCI  -1
BARABOO/DELLS  PTSUNNY   16  10  78 NW12      30.37S WCI   2
LONE ROCK      FLURRIES  20   8  60 NW12      30.41R WCI   8
MINERAL POINT  FLURRIES  21  14  73 N12       30.36R WCI   9
MADISON        PTSUNNY   19  12  74 NW13      30.37R WCI   6
MIDDLETON      PTSUNNY   21  12  68 N12       30.37R WCI   9
WATERTOWN      CLOUDY    19  14  81 NW12G17   30.34R WCI   7
MONROE         FLURRIES  23  18  80 NW8G16    30.34R WCI  14
JANESVILLE     PTSUNNY   25  18  74 NW13G18   30.35  WCI  13
$$

WIZ051-052-058>065-066-070>072-271700-
SOUTHEAST WISCONSIN

CITY           SKY/WX    TMP DP  RH WIND       PRES   REMARKS
MILWAUKEE      CLOUDY    23  16  74 NW14      30.32R WCI  11
WAUKESHA       CLOUDY    18  12  79 NW17      30.34R WCI   2
MILWAUKEE/TIMM CLOUDY    23  16  74 NW14      30.33R WCI  11
RACINE         CLOUDY    23  16  74 NW14G21   30.34R WCI  11
BURLINGTON     CLOUDY    19  15  84 NW16      30.34R WCI   5
KENOSHA        CLOUDY    23  17  78 NW17      30.33R WCI   9
FOND DU LAC    LGT SNOW  18  13  80 NW12      30.35R WCI   5
SHEBOYGAN      CLOUDY    19  11  70 N13       30.33R WCI   6
WEST BEND      FLURRIES  21  16  79 NW12      30.31R WCI   9
JUNEAU         LGT SNOW  17  12  80 NW9       30.35R WCI   6
$$

LSZ147-162-271700-
LAKE SUPERIOR

STATION/POSITION TIME  TEMP    WIND        PRES    WAVE
                       AIR SEA DIR/SP/G            HT/PER
                 (UTC) (F)     (DEG/KT/KT) (MB)    (FT/S)
DEVILS ISLAND    1500    8     360/ 19/ 21 1032.5R
PORT WING        1500    7     330/ 12/ 14 1031.8
SAXON HARBOR     1500   12     320/ 11/ 16 1030.1R
$$

LMZ867-665-643>646-271700-
LAKE MICHIGAN

STATION/POSITION TIME  TEMP    WIND        PRES    WAVE
                       AIR SEA DIR/SP/G            HT/PER
                 (UTC) (F)     (DEG/KT/KT) (MB)    (FT/S)
CHAMBERS ISLAND  1500   16     310/ 20/ 28 1026.4S
N MID LAKE BUOY  1450   20 42  330/ 19/ 25 1025.8R   5/ 5
NORTHPORT PIER   1507   19     320/ 23     1026.1R
SISTER BAY       1443           10/ 29/ 35   N/A
KEWAUNEE LAKESHO 1500   17     340/ 12/ 19 1025.7R
SHEBOYGAN LAKESH 1500   20 35  340/ 17/ 20 1027.9R
PORT WASHINGTON  1500   24     320/  8/ 12 1027.1
MILWAUKEE LAKESH 1500   24     310/ 11/ 15   N/A
S MID LAKE BUOY  1450   31 42  310/ 21/ 25 1024.7R   5/ 5
KENOSHA   LAKESH 1500   23     300/ 17/ 21 1026.1R
$$

TC  - TEMPERATURE IN CELSIUS
VSB - VISIBILITY IN STATUTE MILES
WCI - WIND CHILL INDEX
HX  - HEAT INDEX




USA.gov is the U.S. government's official web portal to all federal, state and local government web resources and services.